Weather History for Joplin, MO

Change the Weather History Date:

Friday, March 8, 2013

  Actual Average Record
Temperature  
Mean Temperature 54 °F 46 °F  
Max Temperature 65 °F 57 °F 80 °F (1992)
Min Temperature 42 °F 36 °F 4 °F (1996)
Degree Days  
Heating Degree Days 11 19  
Month to date heating degree days 193 159  
Since 1 July heating degree days 3309 3413  
Cooling Degree Days 0 0  
Month to date cooling degree days 0 0  
Year to date cooling degree days 1 1  
Growing Degree Days 3 (Base 50)    
Moisture  
Dew Point 35 °F    
Average Humidity 52    
Maximum Humidity 67    
Minimum Humidity 36    
Precipitation  
Precipitation 0.03 in 0.10 in 1.39 in (1999)
Month to date precipitation 0.09 0.83  
Year to date precipitation 5.24 5.18  
Snow  
Snow 0.00 in - - ()
Month to date snowfall T  
Snow Depth 0.00 in    
Sea Level Pressure  
Sea Level Pressure 30.14 in    
Wind  
Wind Speed 11 mph (SE)    
Max Wind Speed 21 mph    
Max Gust Speed 25 mph    
Visibility 10 miles    
Events Rain    
T = Trace of Precipitation, MM = Missing Value Source: NWS Daily Summary

Daily Weather History Graph

Daily Weather History Graph

Search for Another Location

Airport:

Trip Planner

Search our weather history database for the weather conditions in past years. The results will help you decide how hot, cold, wet, or windy it might be!

Date:

Astronomy

Mar. 08, 2013 Rise Set
Actual Time 6:38 AM CST 6:19 PM CST
Civil Twilight 6:12 AM CST 6:45 PM CST
Nautical Twilight 5:42 AM CST 7:15 PM CST
Astronomical Twilight 5:12 AM CST 7:45 PM CST
Moon 4:19 AM CST (3/8) 3:18 PM CST (3/8)
Length of Visible Light 12h 32m
Length of Day
11h 40m
Waning Crescent, 11% of the Moon is Illuminated
Mar 8
Waning Crescent
Mar 11
New
Mar 19
First Quarter
Mar 27
Full
Apr 2
Last Quarter

Hourly Weather History & Observations

Time (CST) Temp. Windchill Dew Point Humidity Pressure Visibility Wind Dir Wind Speed Gust Speed Precip Events Conditions
12:53 AM 45.0 °F 40.1 °F 28.9 °F 53% 30.19 in 10.0 mi SE 9.2 mph - N/A   Clear
1:53 AM 44.1 °F 38.6 °F 30.0 °F 58% 30.20 in 10.0 mi SE 10.4 mph - N/A   Clear
2:53 AM 43.0 °F 36.4 °F 30.0 °F 60% 30.19 in 10.0 mi SE 12.7 mph 19.6 mph N/A   Clear
3:53 AM 42.1 °F 35.2 °F 30.9 °F 65% 30.19 in 10.0 mi SE 12.7 mph 18.4 mph N/A   Clear
4:53 AM 43.0 °F 37.2 °F 30.9 °F 62% 30.20 in 10.0 mi SE 10.4 mph - N/A   Clear
5:53 AM 42.8 °F 36.6 °F 32.0 °F 66% 30.21 in 10.0 mi SE 11.5 mph 18.4 mph N/A   Partly Cloudy
6:53 AM 42.1 °F 35.2 °F 32.0 °F 67% 30.21 in 9.0 mi SE 12.7 mph - N/A   Clear
7:53 AM 44.1 °F 38.1 °F 32.0 °F 63% 30.20 in 10.0 mi SE 11.5 mph 18.4 mph N/A   Clear
8:53 AM 48.2 °F - 33.8 °F 58% 30.21 in 10.0 mi SE 10.4 mph 19.6 mph N/A   Clear
9:53 AM 54.0 °F - 33.1 °F 45% 30.20 in 10.0 mi SSE 13.8 mph - N/A   Clear
10:53 AM 59.0 °F - 35.1 °F 41% 30.19 in 10.0 mi SSE 10.4 mph 17.3 mph N/A   Clear
11:53 AM 62.1 °F - 37.0 °F 39% 30.19 in 10.0 mi SSE 13.8 mph 20.7 mph N/A   Clear
12:53 PM 64.0 °F - 37.9 °F 38% 30.15 in 10.0 mi SSE 13.8 mph - N/A   Mostly Cloudy
1:53 PM 64.0 °F - 37.9 °F 38% 30.11 in 10.0 mi South 15.0 mph 21.9 mph N/A   Overcast
2:53 PM 63.0 °F - 37.0 °F 38% 30.09 in 10.0 mi SSE 16.1 mph 25.3 mph N/A   Overcast
3:53 PM 61.0 °F - 37.0 °F 41% 30.08 in 10.0 mi SSE 11.5 mph - N/A   Overcast
4:53 PM 61.0 °F - 36.0 °F 39% 30.07 in 10.0 mi SE 5.8 mph - N/A   Overcast
5:53 PM 60.1 °F - 36.0 °F 41% 30.07 in 10.0 mi SE 6.9 mph - N/A   Overcast
6:53 PM 60.1 °F - 34.0 °F 38% 30.06 in 10.0 mi ESE 10.4 mph - N/A   Overcast
7:53 PM 57.0 °F - 35.1 °F 44% 30.07 in 10.0 mi SE 8.1 mph - N/A   Overcast
8:53 PM 55.0 °F - 36.0 °F 49% 30.06 in 10.0 mi SE 9.2 mph - 0.00 in   Overcast
9:53 PM 50.0 °F - 43.0 °F 77% 30.06 in 8.0 mi ESE 8.1 mph - 0.03 in Rain Light Rain
10:53 PM 53.1 °F - 37.9 °F 57% 30.04 in 7.0 mi SSE 8.1 mph - 0.00 in   Overcast
11:53 PM 52.0 °F - 39.0 °F 61% 30.01 in 10.0 mi SSE 16.1 mph 25.3 mph 0.00 in   Overcast